www.pogodaiklimat.ru

Погода и климат >> Архив погоды >> Индонезия >> Бандунг


ПОГОДА в Бандунге

  • Прогноз погоды в Бандунге
  • Монитор погоды в Бандунге

АРХИВ ПОГОДЫ в Бандунге

Время (UTC), дата Ветер
(напр.,м/с)
 
Видим.   Явления Облачность Т
(С)
Тd
(С)
f
(%)
Тe
(С)
Тes
(С)
Комфортность P
(гПа)
Po
(гПа)
Тmin
(С)
Tmax
(С)
R
(мм)
R24
(мм)
S
(см)
00 15.07 штиль 0 5000 м мгла 1/0
[Ci fib]
+17.6 +14.1 80 +18 +19 1016.7 930.6 +15.4
03 15.07 СЗ 5 6000 м мгла 3/0
[Ci fib]
+27.4 +20.2 65 +34 +38 очень
душно
1016.5 930.4
06 15.07 СВ 3 7000 м мгла 6/4 540 м
[Cu med, cong Ac trans Ci fib]
+27.2 +14.7 46 +30 +37 душно 1014.9 928.9
09 15.07 СЗ 5 7000 м мгла 6/4 540 м
[Cu med, cong Ac trans Ci fib]
+26.8 +16.5 53 +30 +31 душно 1013.4 927.5
12 15.07 ЮЗ 3 6000 м мгла 8/4 540 м
[Sc Ac As Ci fib]
+23.8 +16.3 63 +27 +27 жарко 1015.4 929.4 +28.2
15 15.07 В 4 5000 м мгла 6/4 540 м
[Sc Ac trans Ci fib]
+21.8 +16.2 70 +26 +26 душно 1017.4 931.2
21 15.07 ЮВ 3 6000 м мгла 5/3 540 м
[Sc Ac trans Ci fib]
+18.6 +14.7 78 +20 +20 1016.8 930.7
00 16.07 ЮВ 3 7000 м мгла 1/0 300 м
[Ac cast]
+18.4 +16.0 86 +19 +20 1017.6 931.4
03 16.07 ЮВ 4 10 км 3/0
[Ci fib]
+24.2 +10.9 43 +25 +34 комфорт 1017.6 931.4
06 16.07 ЮВ 4 10 км 3/0
[Ci fib]
+27.8 +9.4 32 +28 +39 жарко 1014.9 928.9
09 16.07 В 4 10 км 1/0
[Ci fib]
+28.3 +10.3 33 +29 +31 жарко 1012.9 927.0
12 16.07 В 4 10 км 1/0
[Ci fib]
+23.2 +12.5 51 +26 +26 жарко 1013.8 927.9 +29.4
15 16.07 В 5 10 км 1/0
[Ci fib]
+20.1 +13.0 64 +22 +22 комфорт 1015.9 929.8
18 16.07 В 6 10 км 1/0
[Ci fib]
+18.6 +13.8 74 +19 +19 1016.0 929.9
21 16.07 В 3 10 км 1/0
[Ci fib]
+16.6 +12.4 76 +17 +17 1015.3 929.3
00 17.07 штиль 0 5000 м мгла 1/0
[Ci fib]
+16.3 +13.1 81 +16 +18 1016.4 930.3
03 17.07 ЮВ 3 6000 м мгла 3/0 300 м
[Ac trans Ci fib]
+23.4 +13.2 53 +27 +36 душно 1016.4 930.3
06 17.07 штиль 0 10 км 3/1 540 м
[Cu med, cong Ci fib]
+27.6 +11.3 36 +28 +47 жарко 1014.1 928.2
09 17.07 СЗ 3 8000 м мгла 6/4 540 м
[Cu Sc Ac trans Ci fib]
+27.4 +14.0 44 +30 +31 жарко 1012.3 926.5
12 17.07 СЗ 2 6000 м мгла 4/3 540 м
[Sc Ac trans Ci fib]
+23.0 +16.8 68 +28 +28 душно 1013.7 927.8 +29.4
15 17.07 ЮВ 5 5000 м мгла 4/3 540 м
[Sc Ac trans Ci fib]
+21.4 +16.1 72 +25 +25 комфорт 1015.0 929.0
18 17.07 ЮВ 2 8000 м мгла 1/0
[Ci fib]
+17.2 +14.4 84 +17 +17 1015.0 929.0
00 18.07 штиль 0 5000 м мгла 1/0
[Ci fib]
+16.8 +13.7 82 +17 +18 1015.5 929.5 +14.8
03 18.07 Ю 5 7000 м мгла 1/1 540 м
[Cu hum Ci fib]
+25.2 +13.8 49 +27 +34 жарко 1015.0 929.0
06 18.07 В 9 10 км 4/3 540 м
[Cu med, cong Ac trans Ci fib]
+28.8 +13.7 40 +31 +32 жарко 1012.3 926.5
09 18.07 В 5 10 км 5/4 540 м
[Cu Sc Ac trans Ci fib]
+28.0 +13.8 42 +30 +31 жарко 1011.4 925.6
12 18.07 В 4 8000 м мгла 4/3 540 м
[Sc Ac trans Ci fib]
+24.2 +16.7 63 +28 +28 душно 1013.0 927.1 +29.2
15 18.07 ЮВ 3 7000 м мгла 4/1 540 м
[Sc Ac trans Ci fib]
+22.2 +16.9 72 +27 +27 душно 1014.6 928.7
21 18.07 ЮВ 1 6000 м мгла 5/3 540 м
[Sc Ac trans Ci fib]
+21.4 +18.1 81 +26 +26 душно 1013.9 928.0
00 19.07 В 2 5000 м мгла 6/4 540 м
[Sc Ac trans Ci fib]
+21.6 +18.3 82 +26 +27 душно 1014.9 928.9
03 19.07 В 2 8000 м мгла 10/4 540 м
[Sc Ac trans Ci fib]
+26.7 +20.1 67 +33 +43 очень
душно
1018.3 932.1
06 19.07 В 6 10 км 10/4 540 м
[Sc Ac trans Ci fib]
+26.4 +16.4 54 +30 +32 душно 1014.0 928.1
09 19.07 В 5 10 км 10/4 540 м
[Sc Ac trans Ci fib]
+26.2 +16.7 56 +30 +30 душно 1013.1 927.2
12 19.07 В 5 8000 м мгла 9/4 540 м
[Sc Ac trans Ci fib]
+23.9 +18.0 70 +28 +28 душно 1014.3 928.4 +29.2
15 19.07 В 8 10 км 9/4 540 м
[Sc Ac trans Ci fib]
+22.5 +18.4 78 +28 +28 душно 1015.9 929.8
21 19.07 В 5 8000 м мгла 9/4 540 м
[Sc Ac trans Ci fib]
+22.4 +17.9 76 +27 +27 душно 1014.5 928.6
00 20.07 ЮВ 7 8000 м мгла 8/4 540 м
[Sc Ac As Ci fib]
+22.4 +18.2 77 +28 +28 душно 1015.8 929.7 +16.2
03 20.07 ЮВ 5 10 км 9/5 500 м
[Cu Sc Ac As Ci fib]
+25.4 +18.4 65 +30 +32 душно 1016.4 930.3
06 20.07 ЮВ 4 10 км 9/5 500 м
[Cu Sc Ac As Ci fib]
+27.8 +18.8 58 +33 +36 очень
душно
1014.3 928.4
09 20.07 В 9 10 км 6/4 540 м
[Cu med, cong Ac trans Ci fib]
+27.0 +18.5 60 +32 +32 очень
душно
1012.8 926.9
12 20.07 ЮВ 6 8000 м мгла 3/1 540 м
[Sc Ac trans Ci fib]
+23.6 +19.1 76 +28 +28 душно 1013.8 927.9 +29.2
15 20.07 В 4 7000 м мгла 3/1 540 м
[Sc Ac trans Ci fib]
+23.0 +18.9 78 +29 +29 очень
душно
1015.9 929.8
21 20.07 В 6 8000 м мгла 4/1 540 м
[Sc Ac trans Ci fib]
+21.4 +18.8 85 +26 +26 душно 1014.6 928.7
00 21.07 В 5 7000 м мгла 1/0
[Ci fib]
+21.6 +17.6 78 +26 +26 душно 1015.3 929.3 +19.0
03 21.07 В 8 8000 м мгла 3/3 540 м
[Cu med, cong Ci fib]
+25.8 +18.1 62 +30 +32 душно 1015.7 929.6
06 21.07 ЮВ 6 8000 м мгла 5/4 540 м
[Cu Sc Ac trans Ci fib]
+29.4 +16.5 46 +33 +37 душно 1014.0 928.1
09 21.07 Ю 2 8000 м мгла 4/3 540 м
[Cu med, cong Ac trans Ci fib]
+29.2 +17.1 48 +33 +35 очень
душно
1012.4 926.6
12 21.07 ЮВ 2 8000 м мгла 5/4 540 м
[Sc Ac trans Ci fib]
+25.0 +18.3 66 +29 +29 душно 1013.9 928.0 +30.4
15 21.07 штиль 0 8000 м мгла 4/3 540 м
[Sc Ac trans Ci fib]
+22.4 +17.9 76 +27 +27 душно 1016.2 930.1
18 21.07 ЮВ 2 7000 м мгла 4/3 540 м
[Sc Ac trans Ci fib]
+20.8 +17.8 83 +26 +26 душно 1015.9 929.8

 

Местоположение метеостанции Бандунг (Индонезия): широта -6.90 долгота 107.58 высота над уровнем моря 740 м.

В архиве по умолчанию представлена погода в Бандунге за последнюю неделю. Архивные данные за месяц целиком и за предыдущие месяцы, начиная с января 2011 года, Вы можете получить, выбрав интересующий диапазон дат из раскрывающегося списка и нажав кнопку "Ввод!".


*Определитесь, кто Вы:
робот инопланетянин человек

Внимание! Время в таблицах - всемирное. Для получения местного времени необходимо прибавить поправку, которая равна 7 ч.

Смотрите также архив погоды в соседних городах и на ближайших метеорологических станциях:

Погода в Цитеко (Индонезия) (75 км)
Погода в Сиребоне (Индонезия) (77 км)
Погода в Джакарте (Индонезия) (115 км)
Погода в Джакарта порту (Индонезия) (119 км)
Погода в Чуруге (Индонезия) (127 км)
Погода в Аэропорту Сукарно-Хатта (Индонезия) (134 км)
Погода в Тегале (Индонезия) (173 км)
Погода в Серанге (Индонезия) (182 км)
Погода в Чилачапе (Индонезия) (183 км)
Погода в Аэропорту Ахмад Яни (Индонезия) (309 км)

Пояснения к столбцам:

Ветер - указаны скорость ветра в м/с - средняя за 10 мин, порывы в срок и между сроками (в фигурных скобках) и направление, откуда дует ветер: С - северный, СВ - северо-восточный, В - восточный, ЮВ - юго-восточный, Ю - южный, ЮЗ - юго-западный, З - западный, СЗ - северо-западный.
Видимость - горизонтальная дальность видимости в метрах или километрах. При видимости от 1 до 10 км при отсутствии осадков обычно наблюдается дымка, при ухудшении видимости до 1 км и менее - туман. В сухую погоду видимость может ухудшаться дымом, пылью или мглою.
Явления - указаны атмосферные явления, наблюдавшиеся в срок или в последний час перед сроком; фигурными скобками обозначены явления, наблюдавшиеся между сроками (за 1-3 часа до срока); квадратными скобками обозначены град или гололедные отложения с указанием их диаметра в мм.
Облачность - указаны через наклонную черту общая и нижняя облачность в баллах и высота нижней границы облаков в метрах; квадратными скобками обозначены формы облаков: Ci - перистые, Cs - перисто-слоистые, Cc - перисто-кучевые, Ac - высококучевые, As - высокослоистые, Sc - слоисто-кучевые, Ns - слоисто-дождевые, Cu - кучевые, Cb - кучево-дождевые. Подробнее классификацию облаков см. в Атласе облаков (PDF).
T - Температура воздуха - температура, измеренная на высоте 2 м над землей.
Td - Температура точки росы - температура, при понижении до которой содержащийся в воздухе водяной пар достигнет насыщения.
f - Относительная влажность воздуха - влажноcть воздуха, измеренная на высоте 2 м над землей.
Te - Эффективная температура - температура, которую ощущает одетый по сезону человек в тени. Характеристика душности погоды. При расчете учитывается влияние влажности воздуха и скорости ветра на теплоощущения человека.
Tes - Эффективная температура на солнце - температура, которую ощущает человек, с поправкой на солнечный нагрев. Характеристика знойности погоды. Зависит от высоты солнца над горизонтом, облачности и скорости ветра. Ночью, в пасмурную погоду, а также при ветре 12 м/с и более поправка равна нулю.
P - Атмосферное давление - приведенное к уровню моря атмосферное давление.
Po - Атмосферное давление - измеренное на уровне метеостанции атмосферное давление.
Tmin - Минимальная температура - минимум температуры воздуха на высоте 2 м над землей.
Tmax - Максимальная температура - максимум температуры воздуха на высоте 2 м над землей.
R - Количество осадков - Количество выпавших осадков за период времени, мм. При наведении курсора мыши на число - период времени, за который выпало указанное количество осадков.
R24 - Количество осадков - Количество выпавших осадков за 24 часа, мм.
S - Снежный покров - Высота снежного покрова, см. При наведении курсора мыши на число - состояние снежного покрова и степень покрытия местности в баллах.